This is the latest recevied weather packets stored in our database for station/object R6DH-11. If no packets are shown the sender has not sent any weather packets the latest 10 day(s).
| Time | Temp. | Humidity | Pressure | Rain* | Wind** | Luminosity | Snow |
|---|---|---|---|---|---|---|---|
| 1778174197 | 15° C | 59% | 1016.3 hPa | - | - | - | - |
| 1778173295 | 15° C | 57% | 1015.1 hPa | - | - | - | - |
| 1778172393 | 16.11° C | 55% | 1016.1 hPa | - | - | - | - |
| 1778171492 | 16.11° C | 54% | 1016.1 hPa | - | - | - | - |
| 1778170590 | 17.22° C | 52% | 1016 hPa | - | - | - | - |
| 1778169689 | 17.78° C | 50% | 1015.7 hPa | - | - | - | - |
| 1778168794 | 18.33° C | 51% | 1015.5 hPa | - | - | - | - |
| 1778167886 | 18.89° C | 49% | 1015.5 hPa | - | - | - | - |
| 1778166984 | 19.44° C | 46% | 1015.6 hPa | - | - | - | - |
| 1778166120 | 19.44° C | 45% | 1015.6 hPa | - | - | - | - |
| 1778165219 | 20.56° C | 46% | 1015.6 hPa | - | - | - | - |
| 1778164318 | 21.11° C | 46% | 1015.5 hPa | - | - | - | - |
| 1778163415 | 21.67° C | 47% | 1015.5 hPa | - | - | - | - |
| 1778162514 | 22.22° C | 44% | 1015.4 hPa | - | - | - | - |
| 1778161612 | 22.22° C | 44% | 1015.4 hPa | - | - | - | - |
| 1778160711 | 22.78° C | 42% | 1015.4 hPa | - | - | - | - |
| 1778159809 | 21.67° C | 41% | 1013.8 hPa | - | - | - | - |
| 1778158914 | 23.33° C | 41% | 1015.3 hPa | - | - | - | - |
| 1778158006 | 23.33° C | 41% | 1015.5 hPa | - | - | - | - |
| 1778157104 | 23.89° C | 39% | 1015.7 hPa | - | - | - | - |
| 1778156203 | 23.89° C | 40% | 1015.9 hPa | - | - | - | - |
| 1778155301 | 24.44° C | 40% | 1016 hPa | - | - | - | - |
| 1778154400 | 24.44° C | 40% | 1016 hPa | - | - | - | - |
| 1778153498 | 23.89° C | 38% | 1016.2 hPa | - | - | - | - |
| 1778152597 | 23.89° C | 38% | 1016.4 hPa | - | - | - | - |
* Rain since midnight (hover to see other rain measurements)
** Current wind speed in m/s (hover to see current wind gust speed)